sat.trackr.live / text

‹ back to catalog

STARLINK-4519

NORAD 53439 · 2022-097BD

PAYLOAD ACTIVE UNKNOWN

§ Identity

Operator
Country
US
Launch date
2022-08-10
Launch site
AFETR
Launch vehicle
Mass (kg)
RCS (m²)

Purposes: comms

External: N2YO · Heavens-Above · Gunter

§ Orbital elements

Epoch: 2026-05-25T02:36:02.282400Z

Period
95.44 min
Inclination
53.2127°
Eccentricity
0.0001158
Mean motion
15.08836245 rev/d
Perigee alt
539.0 km
Apogee alt
540.6 km
Semi-major
6,917.9 km
B*
6.4908e-5
RAAN
120.8321°
Arg perigee
80.6300°
Mean anomaly
279.4823°
Rev number
21,033

§ Raw data

STARLINK-45191 53439U 22097BD  26145.10835975  .00000745  00000+0  64908-4 0  99962 53439  53.2127 120.8321 0001158  80.6300 279.4823 15.08836245210331

JSON: /api/v1/satellites/53439 · /tle

For live sub-satellite position, see the globe view (requires WebGL).

§ Visibility from observer

Set your observer location to see the next 7 days of passes ≥ 10°. The values pass through the URL so the page stays shareable.

No JS? Fill the form by hand. The geolocation button needs JavaScript.